• In Romania
  • List of Countries
  • For 7 days
  • Water Temperature
  • Satellite Maps
  • Weather Map
  • Weather Widgets
  • user-avatar
    Login

    Hourly Weather Elbasan

    Today, 22 February, Thursday

    Time Temperature Precipitation Wind Pressure Humidity
    00:00 +5°C° 0.4 mm 3 mps 726 mmHg 86%
    01:00 +5°C° 0.4 mm 3 mps 726 mmHg 87%
    02:00 +5°C° 0.4 mm 3 mps 726 mmHg 87%
    03:00 +5°C° 0.4 mm 3 mps 727 mmHg 87%
    04:00 +6°C° 0.4 mm 2 mps 727 mmHg 88%
    05:00 +6°C° 0.1 mm 2 mps 727 mmHg 87%
    06:00 +6°C° 0.1 mm 2 mps 727 mmHg 86%
    07:00 +6°C° 0.1 mm 2 mps 727 mmHg 86%
    08:00 +7°C° 0 mm 2 mps 728 mmHg 83%
    09:00 +9°C° 0 mm 2 mps 728 mmHg 81%
    10:00 +10°C° 0 mm 2 mps 728 mmHg 79%
    11:00 +10°C° 0 mm 2 mps 728 mmHg 77%
    12:00 +12°C° 0 mm 2 mps 728 mmHg 75%
    13:00 +12°C° 0 mm 2 mps 728 mmHg 73%
    14:00 +12°C° 0.1 mm 2 mps 728 mmHg 74%
    15:00 +12°C° 0.1 mm 2 mps 728 mmHg 75%
    16:00 +12°C° 0.1 mm 2 mps 728 mmHg 76%
    17:00 +10°C° 0 mm 2 mps 728 mmHg 79%
    18:00 +9°C° 0 mm 2 mps 729 mmHg 81%
    19:00 +7°C° 0 mm 2 mps 729 mmHg 84%
    20:00 +7°C° 0 mm 2 mps 729 mmHg 83%
    21:00 +7°C° 0 mm 2 mps 729 mmHg 83%
    22:00 +7°C° 0 mm 2 mps 730 mmHg 83%
    23:00 +7°C° 0 mm 2 mps 730 mmHg 83%

    Tomorrow, 23 February, Friday

    Time Temperature Precipitation Wind Pressure Humidity
    00:00 +6°C° 0 mm 2 mps 730 mmHg 83%
    01:00 +6°C° 0 mm 2 mps 730 mmHg 83%
    02:00 +6°C° 0 mm 2 mps 730 mmHg 84%
    03:00 +7°C° 0 mm 2 mps 729 mmHg 84%
    04:00 +7°C° 0 mm 2 mps 729 mmHg 84%
    05:00 +7°C° 0 mm 2 mps 729 mmHg 85%
    06:00 +7°C° 0 mm 2 mps 729 mmHg 85%
    07:00 +7°C° 0 mm 2 mps 729 mmHg 85%
    08:00 +8°C° 0 mm 3 mps 730 mmHg 81%
    09:00 +10°C° 0 mm 3 mps 730 mmHg 78%
    10:00 +11°C° 0 mm 3 mps 730 mmHg 74%
    11:00 +12°C° 0 mm 3 mps 730 mmHg 72%
    12:00 +12°C° 0 mm 3 mps 730 mmHg 69%
    13:00 +13°C° 0 mm 3 mps 730 mmHg 67%
    14:00 +12°C° 0 mm 3 mps 730 mmHg 68%
    15:00 +12°C° 0 mm 3 mps 730 mmHg 69%
    16:00 +12°C° 0 mm 3 mps 729 mmHg 71%
    17:00 +11°C° 0 mm 3 mps 729 mmHg 74%
    18:00 +9°C° 0 mm 3 mps 729 mmHg 77%
    19:00 +8°C° 0 mm 3 mps 729 mmHg 80%
    20:00 +7°C° 0 mm 4 mps 730 mmHg 80%
    21:00 +7°C° 0 mm 4 mps 730 mmHg 81%
    22:00 +7°C° 0 mm 4 mps 730 mmHg 81%
    23:00 +6°C° 0 mm 4 mps 729 mmHg 82%

    Day after tomorrow, 24 February, Saturday

    Time Temperature Precipitation Wind Pressure Humidity
    00:00 +6°C° 0 mm 4 mps 729 mmHg 82%
    01:00 +6°C° 0 mm 4 mps 729 mmHg 82%
    02:00 +6°C° 0 mm 4 mps 729 mmHg 82%
    03:00 +6°C° 0 mm 4 mps 729 mmHg 82%
    04:00 +6°C° 0 mm 4 mps 728 mmHg 83%
    05:00 +7°C° 0 mm 3 mps 728 mmHg 83%
    06:00 +7°C° 0 mm 3 mps 728 mmHg 83%
    07:00 +7°C° 0 mm 3 mps 729 mmHg 83%
    08:00 +8°C° 0 mm 2 mps 729 mmHg 79%
    09:00 +9°C° 0 mm 2 mps 729 mmHg 76%
    10:00 +12°C° 0 mm 2 mps 729 mmHg 72%
    11:00 +12°C° 0.1 mm 2 mps 729 mmHg 71%
    12:00 +12°C° 0.1 mm 2 mps 729 mmHg 69%
    13:00 +12°C° 0.1 mm 1 mps 729 mmHg 68%
    14:00 +12°C° 0.1 mm 1 mps 729 mmHg 70%
    15:00 +12°C° 0.1 mm 1 mps 729 mmHg 72%
    16:00 +12°C° 0.1 mm 1 mps 729 mmHg 73%
    17:00 +11°C° 0.1 mm 1 mps 729 mmHg 77%
    18:00 +10°C° 0.1 mm 1 mps 729 mmHg 80%
    19:00 +9°C° 0.1 mm 1 mps 729 mmHg 83%
    20:00 +9°C° 0.1 mm 1 mps 729 mmHg 83%
    21:00 +9°C° 0.1 mm 1 mps 730 mmHg 83%
    22:00 +9°C° 0.1 mm 1 mps 730 mmHg 84%
    23:00 +9°C° 0.2 mm 1 mps 730 mmHg 84%

    25 February, Sunday

    Time Temperature Precipitation Wind Pressure Humidity
    00:00 +9°C° 0.2 mm 1 mps 730 mmHg 85%
    01:00 +8°C° 0.2 mm 1 mps 730 mmHg 85%
    02:00 +8°C° 0.3 mm 1 mps 730 mmHg 85%
    03:00 +8°C° 0.3 mm 1 mps 729 mmHg 85%
    04:00 +8°C° 0.3 mm 1 mps 729 mmHg 85%
    05:00 +8°C° 0.2 mm 1 mps 729 mmHg 85%
    06:00 +8°C° 0.2 mm 1 mps 730 mmHg 85%
    07:00 +8°C° 0.2 mm 1 mps 730 mmHg 85%
    08:00 +9°C° 0 mm 1 mps 730 mmHg 80%
    09:00 +9°C° 0 mm 2 mps 730 mmHg 75%
    10:00 +10°C° 0 mm 2 mps 730 mmHg 70%
    11:00 +10°C° 0.1 mm 2 mps 730 mmHg 69%
    12:00 +10°C° 0.1 mm 2 mps 730 mmHg 68%
    13:00 +12°C° 0.1 mm 2 mps 729 mmHg 68%
    14:00 +10°C° 0.5 mm 2 mps 729 mmHg 71%
    15:00 +10°C° 0.5 mm 2 mps 729 mmHg 73%
    16:00 +9°C° 0.5 mm 2 mps 729 mmHg 76%
    17:00 +9°C° 0.5 mm 2 mps 729 mmHg 79%
    18:00 +8°C° 0.5 mm 2 mps 729 mmHg 82%
    19:00 +7°C° 0.5 mm 2 mps 729 mmHg 84%
    20:00 +7°C° 0.4 mm 2 mps 729 mmHg 84%
    21:00 +7°C° 0.4 mm 3 mps 729 mmHg 84%
    22:00 +7°C° 0.4 mm 3 mps 729 mmHg 85%
    23:00 +5°C° 0.7 mm 3 mps 729 mmHg 85%

    26 February, Monday

    Time Temperature Precipitation Wind Pressure Humidity
    00:00 +5°C° 0.7 mm 3 mps 728 mmHg 86%
    01:00 +6°C° 0.7 mm 2 mps 728 mmHg 86%
    02:00 +4°C° 0.4 mm 3 mps 727 mmHg 86%
    03:00 +4°C° 0.4 mm 3 mps 727 mmHg 85%
    04:00 +4°C° 0.4 mm 3 mps 726 mmHg 85%
    05:00 +4°C° 0.5 mm 4 mps 725 mmHg 84%
    06:00 +4°C° 0.5 mm 4 mps 725 mmHg 83%
    07:00 +4°C° 0.5 mm 4 mps 724 mmHg 83%
    08:00 +4°C° 1.6 mm 4 mps 724 mmHg 84%
    09:00 +4°C° 1.6 mm 4 mps 724 mmHg 85%
    10:00 +5°C° 1.6 mm 4 mps 723 mmHg 86%
    11:00 +5°C° 0.6 mm 4 mps 723 mmHg 84%
    12:00 +6°C° 0.6 mm 4 mps 723 mmHg 82%
    13:00 +7°C° 0.6 mm 4 mps 723 mmHg 80%
    14:00 +7°C° 0.1 mm 4 mps 722 mmHg 79%
    15:00 +7°C° 0.1 mm 4 mps 722 mmHg 79%
    16:00 +7°C° 0.1 mm 4 mps 722 mmHg 78%
    17:00 +7°C° 1.2 mm 3 mps 722 mmHg 80%
    18:00 +7°C° 1.2 mm 3 mps 722 mmHg 82%
    19:00 +5°C° 1.2 mm 3 mps 721 mmHg 84%
    20:00 +5°C° 1.9 mm 3 mps 721 mmHg 87%
    21:00 +5°C° 1.9 mm 3 mps 721 mmHg 89%
    22:00 +4°C° 1.9 mm 4 mps 721 mmHg 91%
    23:00 +4°C° 1.7 mm 4 mps 721 mmHg 92%

    27 February, Tuesday

    Time Temperature Precipitation Wind Pressure Humidity
    00:00 +3°C° 1.7 mm 5 mps 721 mmHg 92%
    01:00 +3°C° 1.7 mm 6 mps 721 mmHg 93%
    02:00 +2°C° 1 mm 5 mps 722 mmHg 93%
    03:00 +2°C° 1 mm 5 mps 722 mmHg 92%
    04:00 +1°C° 1 mm 4 mps 722 mmHg 92%
    05:00 +1°C° 0.9 mm 4 mps 722 mmHg 91%
    06:00 +1°C° 0.9 mm 5 mps 723 mmHg 91%
    07:00 +1°C° 0.9 mm 5 mps 723 mmHg 91%
    08:00 +1°C° 0.7 mm 5 mps 723 mmHg 89%
    09:00 +2°C° 0.7 mm 5 mps 723 mmHg 88%
    10:00 +2°C° 0.7 mm 6 mps 724 mmHg 87%
    11:00 +2°C° 0.5 mm 6 mps 724 mmHg 86%
    12:00 +2°C° 0.5 mm 6 mps 724 mmHg 85%
    13:00 +2°C° 0.5 mm 6 mps 724 mmHg 84%
    14:00 +2°C° 0.3 mm 5 mps 724 mmHg 83%
    15:00 +2°C° 0.3 mm 5 mps 725 mmHg 83%
    16:00 +3°C° 0.3 mm 4 mps 725 mmHg 83%
    17:00 +2°C° 0.2 mm 3 mps 725 mmHg 85%
    18:00 +1°C° 0.2 mm 3 mps 726 mmHg 87%
    19:00 +2°C° 0.2 mm 2 mps 726 mmHg 89%
    20:00 +1°C° 0.2 mm 2 mps 727 mmHg 89%
    21:00 +1°C° 0.2 mm 2 mps 727 mmHg 89%
    22:00 +1°C° 0.2 mm 1 mps 727 mmHg 90%
    23:00 +1°C° 0 mm 1 mps 727 mmHg 89%
    Show more